Location: Poughquag
(41.6090°N, 73.6820°W)
Time: 12:13:12
(UTC-04:00)

A-11 Canister half - Pass Details

Date: 03 June 2020
Orbit: 1527 x 1682 km, 47.3° (Epoch: 06 July)

Event Time Altitude Azimuth Distance (km) Brightness Sun altitude
Rises 09:27:04 0° 269° (W) 4,675 11.1 43.1°
Reaches altitude 10° 09:30:09 10° 273° (W) 3,697 10.7 43.7°
Maximum altitude 09:39:24 63° 354° (N) 1,694 9.8 45.4°
Drops below altitude 10° 09:48:53 10° 75° (ENE) 3,781 11.9 47.1°
Sets 09:52:04 0° 79° (ENE) 4,787 12.2 47.7°
